Regional Weather Roundup
Issued by NWS Sterling, VA

Home | Current Version | Previous Version | Text Only | Print | Product List | Glossary On
Versions: 1 2 3 4 5 6 7 8 9 10 11 12 13 14 15 16 17 18 19 20 21 22 23 24 25 26 27
000
ASUS41 KLWX 261510
RWRLWX

REGIONAL WEATHER ROUNDUP
NATIONAL WEATHER SERVICE BALTIMORE MD/WASHINGTON DC
1100 AM EDT FRI MAY 26 2017

Note: "FAIR" indicates few or no clouds below 12,000 feet
with no significant weather and/or obstructions to visibility.
 TC=TEMPERATURE CELSIUS

 * =Non NWS site. Station does not report precipitation (e.g. rain,
    snow, etc.), thunder, or fog.

DCZ001-MDZ009-015-VAZ040>042-051-053>054-261600-
WASHINGTON METRO

CITY           SKY/WX    TMP DP  RH WIND       PRES   REMARKS
WASHINGTON NAT PTSUNNY   71  59  65 W15       29.76R
DULLES         CLOUDY    66  55  67 W15G24    29.77R
ANDREWS AFB    PTSUNNY   70  56  62 W13       29.75R
FT BELVOIR     LGT RAIN  68  59  72 W9        29.77R
QUANTICO       CLOUDY    72  60  66 W10       29.79R
COLLEGE PARK*  PTSUNNY   70  57  63 W7G16     29.75R
LEESBURG*      CLOUDY    68  61  77 W14G28    29.78R
MANASSAS*      CLOUDY    67  61  81 SW5       29.79R
GAITHERSBURG*  CLOUDY    70  58  65 W14G22    29.77R

$$

MDZ006>007-011-014-261600-
BALTIMORE METRO

CITY           SKY/WX    TMP DP  RH WIND       PRES   REMARKS
BWI AIRPORT    PTSUNNY   71  60  68 W15G23    29.72R
MD SCIENCE CTR   N/A     73  58  59 MISG      29.74R
MARTIN STATE   PTSUNNY   70  63  78 W14       29.73R
ANNAPOLIS      CLOUDY    72  60  66 W10G16    29.73R
FORT MEADE*    PTSUNNY   68  59  73 W17G26    29.76S

$$

MDZ012-015-019>023-261600-
MARYLAND EASTERN SHORE

CITY           SKY/WX    TMP DP  RH WIND       PRES   REMARKS
OCEAN CITY     PTSUNNY   72  58  61 W14G23    29.73R
SALISBURY      MOSUNNY   72  57  59 NW16G28   29.73R
BAY BRIDGE AP* CLOUDY    70  59  68 W13G20    29.73S
CAMBRIDGE*     MOSUNNY   73  59  60 W10G17    29.75R
EASTON*        PTSUNNY   72  57  60 W13G20    29.77R

$$

MDZ017>025-261600-
SOUTHERN MARYLAND

CITY           SKY/WX    TMP DP  RH WIND       PRES   REMARKS
PATUXENT RIVER MOSUNNY   74  61  63 W17G25    29.76R
ST INIGOES     MOSUNNY   73  59  61 W15G23    29.76R
LEONARDTOWN*   SUNNY     72  57  60 W15G21    29.78R

$$

MDZ003>005-261600-
NORTH CENTRAL MARYLAND

CITY           SKY/WX    TMP DP  RH WIND       PRES   REMARKS
FREDERICK*     PTSUNNY   73  63  68 NW18G26   29.77R
HAGERSTOWN APT LGT RAIN  64  59  83 NW10      29.76R
WESTMINSTER*   CLOUDY    68  57  68 W15G23    29.74R

$$

MDZ501>502-261600-
WESTERN MARYLAND

CITY           SKY/WX    TMP DP  RH WIND       PRES   REMARKS
OAKLAND*         N/A     50  50 100 W14G20    29.85R FOG
CUMBERLAND*    CLOUDY    66  54  63 W15G26    29.82R

$$

VAZ025>031-261600-
SHENANDOAH VALLEY

CITY           SKY/WX    TMP DP  RH WIND       PRES   REMARKS
WINCHESTER*    CLOUDY    63  59  88 W3        29.79S
FRONT ROYAL*   CLOUDY    64  55  72 W5        29.79R
LURAY*         CLOUDY    66  54  63 W9        29.82R
NEW MARKET*    PTSUNNY   68  52  56 SW8G18    29.82R
STAUNTON*      CLOUDY    68  52  57 W12       29.86R
WAYNESBORO*    CLOUDY    66  54  64 W8G20     29.86R

$$

WVZ021-048>050-054>055-261600-
EASTERN WEST VIRGINIA PANHANDLE

CITY           SKY/WX    TMP DP  RH WIND       PRES   REMARKS
MARTINSBURG    CLOUDY    65  56  72 SW10      29.76R
PETERSBURG*    CLOUDY    66  55  66 W15G26    29.83R

$$

VAZ036>039-050-261600-
CENTRAL FOOTHILLS

CITY           SKY/WX    TMP DP  RH WIND       PRES   REMARKS
CHARLOTTESVILL PTSUNNY   72  51  47 W8        29.81R
CULPEPER*      PTSUNNY   73  60  62 NW10G16   29.79S
ORANGE*        MOSUNNY   72  54  53 W16G22    29.80R
GORDONSVILLE*  MOSUNNY   73  55  51 NW9G17    29.80R
WARRENTON*     CLOUDY    71  56  59 W5        29.79R

$$

VAZ055>057-261600-
NORTH AND CENTRAL PIEDMONT

CITY           SKY/WX    TMP DP  RH WIND       PRES   REMARKS
FREDERICKSBRG* MOSUNNY   73  59  61 W10G17    29.78S
STAFFORD*      CLOUDY    69  62  76 SW6       29.83R

$$

NCZ024-NYZ072-PAZ021-071-VAZ022-071-261600-
OTHER REGIONAL OBSERVATIONS

CITY           SKY/WX    TMP DP  RH WIND       PRES   REMARKS
NEW YORK CITY  CLOUDY    64  59  83 MISG      29.61F
PHILADELPHIA   MOSUNNY   70  55  59 W20G26    29.66S
PITTSBURGH     DRIZZLE   57  57 100 W10       29.81R
ROANOKE        MOSUNNY   70  50  49 NW22G37   29.92F
RICHMOND       MOSUNNY   75  56  51 SW17G23   29.81R
RALEIGH        MOSUNNY   73  56  54 W15G21    29.92F

$$

ANZ530>537-261600-
MARINE OBSERVATIONS

STATION/POSITION TIME  TEMP    WIND        PRES
                       AIR SEA DIR/SP/G
                 (UTC) (F)     (DEG/KT/KT) (MB)
THOMAS PT LIGHT  1500   69 64  280/ 16/ 20   N/A
BALT KEY BRIDGE  1448   69     260/ 20/ 24 1005.8F
COVE POINT       1448   70     280/ 12/ 18 1008.2R
LEWISETTA        1448   72 67  300/ 15/ 20 1008.0R
SOLOMONS ISLAND  1448   72 67  270/ 12/ 18   N/A
PINEY POINT      1448          310/ 20/ 23   N/A

$$





USA.gov is the U.S. government's official web portal to all federal, state and local government web resources and services.